Home   Weather   Hartford   Past weeks
Flag for USA

Past Weather in Hartford, Connecticut, USA — Yesterday and Last 2 Weeks

Now
50 °F

Sunny.


Feels Like: 44 °F
Forecast: 52 / 28 °F
Wind: 17 mph from South

Location: Hartford-Brainard Airport

Current Time: Mar 20, 2019 at 6:09:29 pm

Latest Report: Mar 20, 2019 at 4:53 pm


Visibility: 10 mi

Pressure: 30.27 "Hg

Humidity: 32%

Dew Point: 21 °F

Location of HartfordLocation

Past Weather in Hartford — Graph

°F

Hartford Temperature Yesterday

Maximum temperature yesterday: 46 °F (at 3:53 pm)
Minimum temperature yesterday: 26 °F (at 4:53 am)
Average temperature yesterday: 36 °F

High & Low Weather Summary for the Past Weeks

 TemperatureHumidityPressure
High62 °F (Mar 15, 1:53 pm)100% (Mar 11, 3:07 am)30.43 "Hg (Mar 11, 3:07 am)
Low8 °F (Mar 7, 3:53 am)24% (Mar 18, 4:53 pm)29.64 "Hg (Mar 15, 9:53 pm)
Average36 °F59%30.13 "Hg
* Reported Mar 5 3:53 pm — Mar 20 4:53 pm, Hartford. Weather by CustomWeather, © 2019

Note: Actual official high and low records may vary slightly from our data, if they occured in-between our weather recording intervals... More about our weather records

Advertising

Hartford Weather History for the Previous 24 Hours

Scroll right to see more
 ConditionsComfort  
Time TempWeatherWind HumidityBarometerVisibility
4:53 pm
Wed, Mar 20
50 °FSunny.17 mph32%30.27 "Hg10 mi
3:53 pm52 °FPassing clouds.15 mph31%30.28 "Hg10 mi
2:53 pm52 °FPartly sunny.12 mph30%30.29 "Hg10 mi
1:53 pm51 °FSunny.7 mph33%30.32 "Hg10 mi
12:53 pm50 °FScattered clouds.12 mph35%30.35 "Hg10 mi
11:53 am49 °FPassing clouds.9 mph39%30.37 "Hg10 mi
10:53 am44 °FSunny.8 mph53%30.40 "Hg10 mi
9:53 am39 °FSunny.No wind55%30.41 "Hg10 mi
8:53 am34 °FSunny.No wind67%30.42 "Hg10 mi
7:53 am29 °FSunny.No wind82%30.42 "Hg10 mi
6:53 am27 °FClear.3 mph81%30.41 "Hg10 mi
5:53 am27 °FPassing clouds.No wind78%30.41 "Hg10 mi
4:53 am28 °FPassing clouds.No wind75%30.40 "Hg10 mi
3:53 am30 °FOvercast.No wind72%30.41 "Hg10 mi
2:53 am29 °FMostly cloudy.3 mph75%30.42 "Hg10 mi
1:53 am30 °FPassing clouds.5 mph75%30.42 "Hg10 mi
12:53 am28 °FClear.3 mph78%30.42 "Hg10 mi
11:53 pm
Tue, Mar 19
31 °FClear.No wind73%30.42 "Hg10 mi
10:53 pm31 °FClear.No wind67%30.42 "Hg10 mi
9:53 pm38 °FClear.No wind43%30.42 "Hg10 mi
8:53 pm39 °FClear.No wind39%30.40 "Hg10 mi
7:53 pm41 °FClear.7 mph35%30.39 "Hg10 mi
6:53 pm42 °FSunny.12 mph33%30.37 "Hg10 mi
Weather by CustomWeather, © 2019

See weather overview